STARLINK-31872, 59922

Orbit data source: Space-Track

STARLINK-31872, 59922 is a payload satellite owned by SpaceX/Seattle (US) in LEO that was launched on Sat, 01 Jun 2024 UTC via an FALCON 9 launch vehicle from the Air Force Eastern Test Range (AFETR). Payload-class satellites include a variety of spacecraft equipped with specific instruments for various scientific and technological missions. These include communications satellites like Starlink; space stations such as the ISS; scientific satellites like the Hubble; Earth observation satellites from companies like Planet Labs, Umbra, and HawkEye 360; GPS; miniature CubeSats for education and research; and military/defense satellites.

Loading next visibility...
Identifier
59922, 2024-106A
Orbit
LEO
Country
Flag of USUS
Related business
Manufacturer
SpaceX/Seattle
Mission
Operational Commercial Communications
Bus & Motor
STARLINK V2M, Unknown motor
Mass
730 kg wet, ~700 kg dry
Launch date (UTC)
2024-06-01 (2 years ago)
Launch vehicle
FALCON 9
Launch site
Air Force Eastern Test Range (AFETR)
Object type
Payload
Rocket body
Debris
Shape & HBR
Box + 2 Pan, 17.7 m
Radar Cross Section
33.884 m², Large (>1 m²)

Expand to show TLE details & history
Last TLE update: 2 days ago

TLE from 2 days ago
0 STARLINK-31872
1 59922U 24106A   26171.24673214  .00002042  00000-0  83742-4 0  9992
2 59922  43.0042 113.6727 0001758 262.5124  97.5527 15.27572502116247
Epoch: 2026-06-20T05:55Z
TLE epoch observation values (Epoch: 2026-06-20T05:55:17.656Z)
Latitude
-0.0001°
Longitude
116.38492°
Altitude
483.006 km
Speed
7.626 km/s
True Right ascension
07h 34m 41s
True Declination
0° 00' 00"
Sunlit
Object was in daylight at epoch
Visualization orbit readout
Latitude
Unknown
Longitude
Unknown
Altitude
Unknown
Speed
Unknown
Apparent Right ascension
Unknown
Apparent Declination
Unknown
Sunlit
N/A
Visualization observer readout
Local Sidereal Time
21:40:51
Azimuth
Unknown
Elevation
Unknown
Doppler factor
Unknown
Orbital elements
Apogee altitude
486.223 km
Perigee altitude
483.809 km
Semi-major axis
6,863.153 km
Eccentricity
0.00018
Inclination
43.0042°
RAAN
113.6727°
Arg. of periapsis
262.5124°
True anomaly
97.57267°
Mean anomaly
97.5527°
Eccentric anomaly
97.56268°
Mean motion
3.81731 °/min
Orbital period
94.31 mins
BSTAR
0.000083742
Loading maneuver chart data...
Computing Atmospheric mass density...
Loading historical data...
Loading historical data...
Loading historical data...
Loading historical data...
Loading historical data...
Loading historical data...
Loading historical data...

Documentation

Showing up to 5 results
|